CW4141 Weather Reports


Display with metric or nautical units.
time (UTC)temp
F
wind
direction
speed
MPH
gust
MPH
rain 1hr
in
rain 24hr
in
rain mn
in
humidity
%
barometer
mb
20260508073058 56 163 1.0 4.0 0.00 0.00 0.00 89 1019.9
20260508073024 56 163 1.0 3.0 0.00 0.00 0.00 90 1014.1
20260508071600 56 163 0.0 5.0 0.00 0.00 0.00 88 1019.8
20260508071527 56 163 0.0 4.0 0.00 0.00 0.00 89 1014.1
20260508070138 57 0 0.0 4.0 0.00 0.00 0.00 87 1019.8
20260508070020 57 163 0.0 3.0 0.00 0.00 0.00 87 1014.1
20260508064607 57 163 0.0 4.0 0.00 0.00 0.00 85 1019.7
20260508064521 57 163 0.0 3.0 0.00 0.00 0.00 86 1014.1
20260508063053 58 0 0.0 4.0 0.00 0.00 0.00 85 1019.8
20260508063020 58 163 0.0 2.0 0.00 0.00 0.00 85 1014.1
20260508061555 58 0 1.0 5.0 0.00 0.00 0.00 84 1019.8
20260508061523 58 163 1.0 3.0 0.00 0.00 0.00 85 1014.1
20260508060051 59 0 0.0 4.0 0.00 0.00 0.00 83 1019.7
20260508060018 59 163 0.0 3.0 0.00 0.00 0.00 84 1013.9
20260508054553 59 0 0.0 4.0 0.00 0.00 0.00 82 1019.7
20260508054521 59 163 0.0 3.0 0.00 0.00 0.00 83 1014.0
20260508053102 60 0 0.0 2.0 0.00 0.00 0.00 81 1019.7
20260508053017 60 163 0.0 2.0 0.00 0.00 0.00 81 1014.0
20260508051554 61 163 0.0 4.0 0.00 0.00 0.00 80 1019.6
20260508051525 61 163 0.0 3.0 0.00 0.00 0.00 80 1013.9
20260508050055 61 163 0.0 2.0 0.00 0.00 0.00 78 1019.5
20260508050016 61 163 0.0 2.0 0.00 0.00 0.00 79 1013.7
20260508044551 62 0 0.0 2.0 0.00 0.00 0.00 77 1019.4
20260508044516 62 163 0.0 3.0 0.00 0.00 0.00 78 1013.5
20260508043101 62 163 0.0 4.0 0.00 0.00 0.00 76 1019.2
20260508043017 62 163 0.0 3.0 0.00 0.00 0.00 77 1013.4
20260508041554 63 163 0.0 4.0 0.00 0.00 0.00 75 1019.0
20260508041515 63 163 0.0 2.0 0.00 0.00 0.00 76 1013.0
20260508040057 63 0 0.0 2.0 0.00 0.00 0.00 75 1018.7
20260508040015 63 163 0.0 2.0 0.00 0.00 0.00 75 1012.7
20260508034559 64 0 0.0 2.0 0.00 0.00 0.00 73 1018.5
20260508034513 64 163 0.0 2.0 0.00 0.00 0.00 73 1012.5
20260508033058 65 0 0.0 2.0 0.00 0.00 0.00 71 1018.3
20260508033013 65 163 0.0 2.0 0.00 0.00 0.00 71 1012.4
20260508031554 66 0 0.0 2.0 0.00 0.00 0.00 69 1018.2
20260508031512 66 163 0.0 2.0 0.00 0.00 0.00 70 1012.4
20260508030056 67 0 0.0 5.0 0.00 0.00 0.00 68 1018.1
20260508030012 67 163 0.0 3.0 0.00 0.00 0.00 68 1012.1
20260508024557 68 163 0.0 2.0 0.00 0.00 0.00 66 1018.0
20260508024512 68 163 0.0 2.0 0.00 0.00 0.00 66 1012.0
20260508023051 69 0 0.0 5.0 0.00 0.00 0.00 65 1017.8
20260508023014 69 160 0.0 3.0 0.00 0.00 0.00 65 1011.8
20260508021550 69 0 0.0 7.0 0.00 0.00 0.00 63 1017.5
20260508021510 69 168 0.0 7.0 0.00 0.00 0.00 63 1011.8
20260508020051 70 0 0.0 5.0 0.00 0.00 0.00 62 1017.4
20260508020010 70 147 0.0 4.0 0.00 0.00 0.00 62 1011.7
20260508014550 71 180 0.0 5.0 0.00 0.00 0.00 61 1017.5
20260508014510 71 180 0.0 5.0 0.00 0.00 0.00 61 1011.6
20260508013056 72 177 1.0 5.0 0.00 0.00 0.00 59 1017.3
20260508013009 72 177 1.0 5.0 0.00 0.00 0.00 60 1011.4
20260508011551 73 0 0.0 6.0 0.00 0.00 0.00 58 1017.3
20260508011511 73 155 0.0 5.0 0.00 0.00 0.00 58 1011.3
20260508010050 73 0 2.0 8.0 0.00 0.00 0.00 57 1017.3
20260508010009 73 146 2.0 7.0 0.00 0.00 0.00 57 1011.3
20260508004547 74 175 1.0 6.0 0.00 0.00 0.00 55 1017.3
20260508004508 74 142 2.0 6.0 0.00 0.00 0.00 55 1011.3
20260508003051 75 134 1.0 8.0 0.00 0.00 0.00 54 1017.1
20260508003007 75 134 2.0 7.0 0.00 0.00 0.00 54 1011.3
20260508001550 76 146 2.0 9.0 0.00 0.00 0.00 52 1017.1
20260508001508 76 146 2.0 8.0 0.00 0.00 0.00 52 1011.2
20260508000053 77 133 2.0 9.0 0.00 0.00 0.00 51 1017.1
20260508000008 77 133 2.0 8.0 0.00 0.00 0.00 51 1011.2
20260507234552 78 0 1.0 8.0 0.00 0.00 0.00 50 1017.0
20260507234515 78 221 1.0 8.0 0.00 0.00 0.00 50 1011.1
20260507233052 79 0 2.0 6.0 0.00 0.00 0.00 49 1016.9
20260507233004 79 208 1.0 6.0 0.00 0.00 0.00 49 1010.9
20260507231554 81 0 2.0 9.0 0.00 0.00 0.00 47 1016.7
20260507231503 81 230 3.0 8.0 0.00 0.00 0.00 47 1010.8
20260507230058 81 207 1.0 7.0 0.00 0.00 0.00 47 1016.8
20260507230002 81 207 2.0 7.0 0.00 0.00 0.00 47 1010.9
20260507224550 82 214 1.0 7.0 0.00 0.00 0.00 46 1016.7
20260507224505 82 192 1.0 7.0 0.00 0.00 0.00 47 1010.8
20260507223053 83 143 2.0 9.0 0.00 0.00 0.00 46 1016.7
20260507223002 83 143 1.0 8.0 0.00 0.00 0.00 46 1010.8
20260507221600 84 0 1.0 6.0 0.00 0.00 0.00 45 1016.8
20260507220058 85 190 1.0 6.0 0.00 0.00 0.00 43 1016.9
20260507214600 85 203 1.0 5.0 0.00 0.00 0.00 44 1011.3
20260507214552 85 206 1.0 5.0 0.00 0.00 0.00 43 1017.1
20260507213059 86 221 1.0 8.0 0.00 0.00 0.00 42 1017.2
20260507211555 86 184 2.0 6.0 0.00 0.00 0.00 41 1011.4
20260507211547 86 184 2.0 7.0 0.00 0.00 0.00 41 1017.2
20260507210054 86 201 1.0 5.0 0.00 0.00 0.00 40 1017.3
20260507204601 86 213 0.0 8.0 0.00 0.00 0.00 39 1017.4
20260507204554 86 213 1.0 5.0 0.00 0.00 0.00 40 1011.7
20260507203100 86 134 1.0 6.0 0.00 0.00 0.00 39 1011.9
20260507203055 86 134 0.0 6.0 0.00 0.00 0.00 39 1017.4
20260507201604 86 199 0.0 5.0 0.00 0.00 0.00 39 1017.5
20260507201550 86 199 1.0 4.0 0.00 0.00 0.00 39 1011.9
20260507200057 86 172 2.0 7.0 0.00 0.00 0.00 38 1017.5
20260507200051 86 172 2.0 6.0 0.00 0.00 0.00 38 1012.1
20260507194600 85 0 0.0 9.0 0.00 0.00 0.00 38 1017.7
20260507194548 85 133 0.0 8.0 0.00 0.00 0.00 38 1012.3
20260507193056 86 143 0.0 7.0 0.00 0.00 0.00 37 1017.9
20260507193053 86 143 0.0 6.0 0.00 0.00 0.00 37 1012.5
20260507191614 85 0 0.0 2.0 0.00 0.00 0.00 38 1018.1
20260507191543 85 132 0.0 2.0 0.00 0.00 0.00 38 1012.6
20260507190055 84 0 0.0 3.0 0.00 0.00 0.00 37 1018.4
20260507190040 84 144 0.0 3.0 0.00 0.00 0.00 39 1012.9
20260507184601 83 0 0.0 4.0 0.00 0.00 0.00 38 1018.5
20260507184539 83 142 0.0 4.0 0.00 0.00 0.00 39 1013.1
20260507183050 82 0 0.0 2.0 0.00 0.00 0.00 41 1018.7
20260507183039 82 140 0.0 2.0 0.00 0.00 0.00 41 1013.2
20260507181549 81 0 0.0 4.0 0.00 0.00 0.00 43 1018.8
20260507181527 81 135 0.0 4.0 0.00 0.00 0.00 44 1013.5
20260507180049 80 0 0.0 2.0 0.00 0.00 0.00 42 1019.0
20260507180035 80 134 0.0 2.0 0.00 0.00 0.00 43 1013.6
20260507174554 79 0 0.0 0.0 0.00 0.00 0.00 44 1019.1
20260507174530 79 134 0.0 0.0 0.00 0.00 0.00 47 1013.7
20260507173054 77 0 0.0 1.0 0.00 0.00 0.00 48 1019.2
20260507173017 77 134 0.0 1.0 0.00 0.00 0.00 48 1013.7
20260507171553 76 0 0.0 0.0 0.00 0.00 0.00 50 1019.3
20260507171512 76 134 0.0 0.0 0.00 0.00 0.00 51 1013.9
20260507170052 74 0 0.0 0.0 0.00 0.00 0.00 51 1019.3
20260507170010 74 134 0.0 0.0 0.00 0.00 0.00 53 1013.9
20260507164608 72 0 0.0 0.0 0.00 0.00 0.00 57 1019.4
20260507164504 72 134 0.0 0.0 0.00 0.00 0.00 57 1014.0
20260507163100 70 134 0.0 0.0 0.00 0.00 0.00 61 1014.1
20260507163054 70 0 0.0 0.0 0.00 0.00 0.00 61 1019.4
20260507161603 67 130 0.0 0.0 0.00 0.00 0.00 67 1014.2
20260507161556 67 0 0.0 0.0 0.00 0.00 0.00 66 1019.5
20260507160054 64 0 0.0 0.0 0.00 0.00 0.00 71 1019.6
20260507160051 64 130 0.0 0.0 0.00 0.00 0.00 71 1014.3
20260507154554 61 0 0.0 0.0 0.00 0.00 0.00 79 1019.7
20260507154546 61 130 0.0 0.0 0.00 0.00 0.00 79 1014.4
20260507153053 59 0 0.0 1.0 0.00 0.00 0.00 85 1019.8
20260507153048 59 130 0.0 0.0 0.00 0.00 0.00 85 1014.4
20260507151552 57 0 0.0 0.0 0.00 0.00 0.00 89 1019.5
20260507151541 57 130 0.0 0.0 0.00 0.00 0.00 89 1014.4
20260507150051 55 0 0.0 0.0 0.00 0.00 0.00 90 1019.6
20260507150036 55 130 0.0 0.0 0.00 0.00 0.00 90 1014.4
20260507144552 54 0 0.0 0.0 0.00 0.00 0.00 90 1019.4
20260507144535 54 130 0.0 0.0 0.00 0.00 0.00 90 1014.2
20260507143106 53 0 0.0 1.0 0.00 0.00 0.00 89 1019.4
20260507143033 53 141 0.0 1.0 0.00 0.00 0.00 89 1014.3
20260507141607 52 0 0.0 0.0 0.00 0.00 0.00 88 1019.2
20260507141531 52 141 0.0 0.0 0.00 0.00 0.00 89 1014.3
20260507140056 51 0 0.0 0.0 0.00 0.00 0.00 88 1019.2
20260507140029 51 141 0.0 0.0 0.00 0.00 0.00 88 1014.0
20260507134551 51 0 0.0 0.0 0.00 0.00 0.00 86 1019.2
20260507134536 51 141 0.0 0.0 0.00 0.00 0.00 87 1014.0
20260507133101 51 0 0.0 0.0 0.00 0.00 0.00 86 1019.1
20260507133027 50 141 0.0 0.0 0.00 0.00 0.00 86 1014.0
20260507131602 51 0 0.0 0.0 0.00 0.00 0.00 86 1019.0
20260507131531 51 141 0.0 0.0 0.00 0.00 0.00 86 1013.9
20260507130056 51 0 0.0 1.0 0.00 0.00 0.00 86 1018.8
20260507130022 51 141 0.0 1.0 0.00 0.00 0.00 86 1013.9
20260507124556 51 0 0.0 0.0 0.00 0.00 0.00 85 1018.6
20260507124521 51 141 0.0 0.0 0.00 0.00 0.00 86 1013.8
20260507123112 51 0 0.0 0.0 0.00 0.00 0.00 85 1018.7
20260507123021 51 141 0.0 0.0 0.00 0.00 0.00 85 1013.9
20260507121552 51 0 0.0 0.0 0.00 0.00 0.00 84 1018.6
20260507121519 51 141 0.0 0.0 0.00 0.00 0.00 84 1013.9
20260507120055 51 0 0.0 0.0 0.00 0.00 0.00 83 1018.7
20260507120018 51 141 0.0 0.0 0.00 0.00 0.00 84 1013.9
20260507114557 51 0 0.0 0.0 0.00 0.00 0.00 83 1018.7
20260507114525 51 141 0.0 0.0 0.00 0.00 0.00 83 1014.0
20260507113055 51 0 0.0 0.0 0.00 0.00 0.00 81 1018.7
20260507113016 51 141 0.0 0.0 0.00 0.00 0.00 82 1014.1
20260507111552 51 0 0.0 0.0 0.00 0.00 0.00 81 1018.8
20260507111521 51 141 0.0 0.0 0.00 0.00 0.00 81 1014.3
20260507110057 51 0 0.0 0.0 0.00 0.00 0.00 81 1018.8
20260507110014 51 141 0.0 0.0 0.00 0.00 0.00 81 1014.4
20260507104559 52 0 0.0 0.0 0.00 0.00 0.00 80 1019.0
20260507104512 52 141 0.0 0.0 0.00 0.00 0.00 81 1014.4
20260507103058 52 0 0.0 0.0 0.00 0.00 0.00 80 1019.0
20260507103010 52 141 0.0 0.0 0.00 0.00 0.00 80 1014.5
20260507101554 52 0 0.0 0.0 0.00 0.00 0.00 79 1019.2
20260507101516 52 141 0.0 0.0 0.00 0.00 0.00 80 1014.5
20260507100059 53 0 0.0 0.0 0.00 0.00 0.00 79 1019.2
20260507100006 53 141 0.0 0.0 0.00 0.00 0.00 79 1014.5
20260507094553 53 0 0.0 0.0 0.00 0.00 0.00 79 1019.2
20260507094505 53 141 0.0 0.0 0.00 0.00 0.00 79 1014.5
20260507093052 53 0 0.0 0.0 0.00 0.00 0.00 78 1019.5
20260507093004 53 141 0.0 0.0 0.00 0.00 0.00 78 1014.7
20260507091551 53 0 0.0 0.0 0.00 0.00 0.00 77 1019.6
20260507091502 53 141 0.0 0.0 0.00 0.00 0.00 78 1014.9
20260507090004 54 141 0.0 0.0 0.00 0.00 0.00 77 1015.0
20260507084603 54 141 0.0 0.0 0.00 0.00 0.00 76 1015.1
20260507084555 54 0 0.0 0.0 0.00 0.00 0.00 76 1019.7
20260507083057 54 141 0.0 0.0 0.00 0.00 0.00 76 1015.1
20260507083047 54 0 0.0 0.0 0.00 0.00 0.00 75 1019.9
20260507081556 55 0 0.0 0.0 0.00 0.00 0.00 75 1020.1
20260507080053 55 141 0.0 0.0 0.00 0.00 0.00 75 1015.2
20260507074553 55 0 0.0 0.0 0.00 0.00 0.00 74 1020.0